This demonstration page uses our WeatherBlox Daily Observations layout. Learn more.

Left ArrowRight Arrow

34.16533, -84.80231

Hourly Observations for December 17, 2017

Temp ( °F °C ) Dew Point ( °F °C ) Humidity (%) Winds ( mph kmh ) Pressure ( in mb ) Visibility ( mi km ) Precip ( " mm )
12:53 am 00:53 Clear 28 -2.2 28 -2.2 100 100 Calm 30.28 1025 9 14 0.00 0.00
1:53 am 01:53 Clear 28 -2.2 28 -2.2 100 100 Calm 30.27 1025 8 13 0.00 0.00
2:53 am 02:53 Clear 28 -2.2 28 -2.2 100 100 Calm 30.27 1025 8 13 0.00 0.00
3:53 am 03:53 Clear 30 -1.1 29 -1.7 96 96 Calm 30.23 1024 9 14 0.00 0.00
4:53 am 04:53 Clear 29 -1.7 28 -2.2 96 96 Calm 30.22 1024 9 14 0.00 0.00
5:53 am 05:53 Clear 34 1.1 30 -1.1 85 85 E 3 6 30.22 1023 10 16 0.00 0.00
6:53 am 06:53 Clear 35 1.7 30 -1.1 82 82 E 6 9 30.22 1023 10 16 0.00 0.00
7:53 am 07:53 Mostly Cloudy 35 1.7 32 0 89 89 Calm 30.24 1024 9 14 0.00 0.00
8:53 am 08:53 Mostly Cloudy 38 3.3 33 0.6 83 83 N 3 6 30.28 1026 10 16 0.00 0.00
9:53 am 09:53 Cloudy 39 3.9 34 1.1 82 82 Calm 30.35 1028 10 16 0.00 0.00
10:53 am 10:53 Mostly Cloudy 43 6.1 36 2.2 76 76 E 6 9 30.28 1026 10 16 0.00 0.03
11:53 am 11:53 Cloudy 45 7.2 33 0.6 63 63 VRB 3 6 30.24 1024 10 16 0.00 0.00
12:53 pm 12:53 Cloudy 46 7.8 33 0.6 61 61 Calm 30.21 1023 10 16 0.00 0.00
1:53 pm 13:53 Cloudy with Light Rain 47 8.3 36 2.2 66 66 Calm 30.18 1022 10 16 0.00 0.03
2:15 pm 14:15 Cloudy 46 7.8 40 4.4 79 79 Calm 30.21 1023 10 16 0.00 0.03
2:42 pm 14:42 Cloudy with Rain 44 6.7 43 6.1 96 96 Calm 30.21 1023 2 3 0.05 1.27
2:53 pm 14:53 Cloudy with Light Rain 44 6.7 42 5.6 93 93 Calm 30.20 1023 3 5 0.06 1.52
3:07 pm 15:07 Cloudy with Light Rain 44 6.7 43 6.1 96 96 Calm 30.21 1023 3 4 0.02 0.51
3:41 pm 15:41 Cloudy with Mist and Fog 43 6.1 42 5.6 97 97 VRB 6 9 30.18 1022 5 8 0.03 0.76
3:53 pm 15:53 Cloudy with Mist and Fog 43 6.1 43 6.1 100 100 E 6 9 30.16 1021 5 8 0.03 0.76
4:53 pm 16:53 Cloudy with Mist and Fog 44 6.7 44 6.7 100 100 Calm 30.18 1022 5 8 0.00 0.00
5:38 pm 17:38 Cloudy with Mist and Fog 44 6.7 44 6.7 100 100 Calm 30.18 1022 5 8 0.00 0.00
5:50 pm 17:50 Cloudy with Mist and Fog 45 7 45 7 100 100 Calm 30.18 1022 5 8 0.00 0.00
5:53 pm 17:53 Cloudy with Mist and Fog 44 6.7 44 6.7 100 100 Calm 30.18 1022 5 8 0.00 0.00
6:29 pm 18:29 Cloudy with Mist and Fog 44 6.7 44 6.7 100 100 VRB 3 6 30.18 1022 4 6 0.00 0.00
6:53 pm 18:53 Cloudy with Mist and Fog 44 6.7 44 6.7 100 100 Calm 30.19 1022 5 8 0.00 0.00
7:53 pm 19:53 Cloudy with Mist and Fog 45 7.2 45 7.2 100 100 ESE 5 7 30.18 1022 6 10 0.00 0.00
8:50 pm 20:50 Cloudy with Mist and Fog 45 7 45 7 100 100 Calm 30.21 1023 6 10 0.00 0.00
8:53 pm 20:53 Cloudy with Mist and Fog 45 7.2 45 7.2 100 100 Calm 30.19 1022 6 10 0.00 0.00
9:53 pm 21:53 Cloudy with Mist and Fog 45 7.2 45 7.2 100 100 Calm 30.18 1022 6 10 0.00 0.00
10:53 pm 22:53 Cloudy with Mist and Fog 46 7.8 46 7.8 100 100 Calm 30.18 1022 5 8 0.00 0.00
11:53 pm 23:53 Cloudy with Mist and Fog 46 7.8 46 7.8 100 100 Calm 30.17 1022 5 8 0.00 0.00

Powered by AerisWeather